Starlink 31690

operational
NORAD ID: 59581 Int'l Des: 2024-076 Owner: SPXS Country: US Constellation: starlink
LEOCIRCULAR

关于 Starlink 31690

正在加载描述...

实时位置

正在加载3D地球...

即将过境

高度历史

Altitude vs Time

uPlot chart will show altitude changes over time

两行轨道根数

1 59581U 24076T 25352.66902617 -.00000090 00000-0 62671-5 0 9998
2 59581 42.9995 106.3823 0001418 267.8613 92.2076 15.27581576 94127
Epoch: Dec 18, 2025 • Age: 17 hours

当前状态

高度 487.4 km
速度 7.62 km/s
星下点 -21.33°S, 148.16°W
发射日期 Apr 23, 2024
运行时间 1.6 years
类型 internet

技术详情

分类 Payload
质量 730.00 kg
干质量 700.00 kg
总质量 730.00 kg
长度 0.30 m
直径 4.10 m
跨度 29.00 m
形状 Box + pan
制造商 SPXS
平台类型 Starlink V2M
阶段状态 In Orbit
所有者/国家 SPXS/US

大型星座

Loading constellations...